Starlink 5043

operational
NORAD ID: 53894 Int'l Des: 2022-119 Owner: SPXS Country: US Constellation: starlink
LEOCIRCULAR

Starlink 5043について

説明を読み込み中...

リアルタイム位置

3D地球を読み込み中...

次回通過

高度履歴

Altitude vs Time

uPlot chart will show altitude changes over time

軌道要素

1 53894U 22119J 26034.63923611 -.00001100 00000-0 -51028-4 0 9994
2 53894 53.2176 117.0130 0001381 95.4347 264.6803 15.08837500186543
Epoch: Feb 3, 2026 • Age: 13 hours

現在のステータス

高度 544.6 km
速度 7.60 km/s
衛星直下点 49.32°N, 25.46°W
打ち上げ日 Sep 24, 2022
運用期間 3.3 years
タイプ internet

技術仕様

分類 Payload
質量 305.00 kg
乾燥質量 290.00 kg
総質量 305.00 kg
長さ 0.20 m
直径 2.80 m
スパン 9.00 m
形状 Box + pan
製造者 SPXS
バスタイプ Starlink
フェーズステータス In Orbit
所有者/国 SPXS/US

大規模コンステレーション

Loading constellations...